Regional Weather Roundup
Issued by NWS

Home | Current Version | Previous Version | Graphics & Text | Print | Product List | Glossary On
Versions: 1 2 3 4 5 6 7 8 9 10 11 12 13 14 15 16 17 18 19 20 21 22 23 24 25 26 27 28 29 30 31 32 33 34 35 36 37 38 39 40 41 42 43 44 45 46 47 48 49 50
000
ASUS43 KOAX 271502
RWRNE

WEATHER ROUNDUP FOR NEBRASKA
NATIONAL WEATHER SERVICE OMAHA NE
900 AM CST FRI FEB 27 2015

NOTES: SATELLITE DATA IS BEING USED TO AUGMENT CLOUD COVER ABOVE
       12000 FEET.
       "FAIR" INDICATES FEW OR NO CLOUDS BELOW 12,000 FEET WITH NO
       SIGNIFICANT WEATHER AND/OR OBSTRUCTIONS TO VISIBILITY.

  * THESE STATIONS DO NOT REPORT WEATHER SUCH AS RAIN...SNOW OR FOG.

NEZ001>004-019>022-054>056-271600-
NEBRASKA PANHANDLE

CITY           SKY/WX    TMP DP  RH WIND       PRES   REMARKS
SCOTTSBLUFF    CLOUDY     8   2  76 SE17      30.17S WCI -10
ALLIANCE       CLOUDY     6   2  83 S15       30.19F WCI -12
CHADRON        CLOUDY     9   0  67 S10       30.22F WCI  -5
KIMBALL        LGT SNOW   6   2  86 SE17      30.07S WCI -13
SIDNEY         LGT SNOW   7   2  80 SE15      30.17S WCI -10
$$

NEZ057>060-069>072-079>082-271600-
SOUTHWEST NEBRASKA

CITY           SKY/WX    TMP DP  RH WIND       PRES   REMARKS
NORTH PLATTE   PTSUNNY    5  -2  72 SE6       30.39S WCI  -6
IMPERIAL       CLOUDY     7   0  73 SE14      30.32R WCI -10
MCCOOK         CLOUDY    11   0  61 SE10      30.42S WCI  -3
$$

NEZ005>010-023>029-035>040-094-271600-
NORTH CENTRAL NEBRASKA

CITY           SKY/WX    TMP DP  RH WIND       PRES   REMARKS
VALENTINE      SUNNY      4  -2  76 SW6       30.38S WCI  -7
AINSWORTH      SUNNY      6   0  75 SW12      30.39S WCI  -9
BROKEN BOW     SUNNY      4  -2  76 CALM      30.44R
ORD            SUNNY      2  -3  80 CALM      30.49S
$$

NEZ041-046>049-061>064-073>077-083>087-271600-
SOUTH CENTRAL NEBRASKA

CITY           SKY/WX    TMP DP  RH WIND       PRES   REMARKS
GRAND ISLAND   SUNNY      5  -2  72 SW5       30.55R WCI  -4
AURORA         SUNNY      5  -1  76 CALM      30.55R
HASTINGS       SUNNY      7   0  73 CALM      30.51S
HEBRON         SUNNY      5  -1  77 CALM      30.59S
KEARNEY *      SUNNY      3   0  85 CALM      30.49S
YORK           SUNNY      5   0  78 S3        30.57R
$$

NEZ011>018-030>034-042>045-271600-
NORTHEAST NEBRASKA

CITY           SKY/WX    TMP DP  RH WIND       PRES   REMARKS
NORFOLK        SUNNY      3  -3  76 W3        30.55R
BLAIR          SUNNY      2  -4  75 CALM      30.60R
COLUMBUS *     SUNNY      3  -9  55 CALM      30.59R
TEKAMAH        SUNNY      3  -5  69 NW3       30.64R
$$

NEZ050>053-065>068-078-088>093-271600-
SOUTHEAST NEBRASKA

CITY           SKY/WX    TMP DP  RH WIND       PRES   REMARKS
LINCOLN        SUNNY      4  -3  73 CALM      30.63R
OMAHA EPPLEY   SUNNY      3  -3  76 CALM      30.64R
FALLS CITY     SUNNY      6   0  76 CALM      30.65R
NEBRASKA CITY  SUNNY      4  -4  68 CALM      30.62R
$$

NEZ044-045-051>053-067-271600-
OMAHA AREA

CITY           SKY/WX    TMP DP  RH WIND       PRES   REMARKS
OMAHA EPPLEY   SUNNY      3  -3  76 CALM      30.64R
BLAIR          SUNNY      2  -4  75 CALM      30.60R
OFFUTT AFB     SUNNY      3  -4  72 W2        30.63R
WAHOO          FAIR       4  -3  72 N5        30.61S WCI  -5
$$


USA.gov is the U.S. government's official web portal to all federal, state and local government web resources and services.